Location: Gellin
(53.4498°N, 14.3207°E)
Time: 01:19:20
(UTC+00:00)

CZ-2C R/B - Pass Details

Date: 03 March 2021
Orbit: 784 x 871 km, 98.2° (Epoch: 11 April)

Event Time Altitude Azimuth Distance (km) Brightness Sun altitude
Rises 19:38:43 0° 10° (N) 3,449 6.1 -26.0°
Reaches altitude 10° 19:41:21 10° 1° (N) 2,497 5.4 -26.4°
Maximum altitude 19:46:09 31° 301° (WNW) 1,434 4.5 -27.0°
Drops below altitude 10° 19:50:51 10° 241° (WSW) 2,435 5.4 -27.6°
Sets 19:53:23 0° 231° (SW) 3,350 6.1 -28.0°
